Location: Unspecified
(54.1780°N, 0.0000°E)
Time: 21:03:35
(UTC+00:00)

S-56A Canister/Altair - Pass Details

Date: 09 October 2020
Orbit: 632 x 2500 km, 38.9° (Epoch: 20 October)

Event Time Altitude Azimuth Distance (km) Brightness Sun altitude
Rises 17:28:46 0° 276° (W) 6,157 14.2 -2.7°
Reaches altitude 10° 17:34:16 10° 263° (W) 5,165 13.8 -3.5°
Maximum altitude 17:43:43 21° 223° (SW) 4,163 12.0 -4.9°
Drops below altitude 10° 17:52:17 10° 182° (S) 4,604 11.6 -6.1°
Sets 17:56:50 0° 168° (SSE) 5,319 11.7 -6.8°
